AQI (160)

Current Conditions for Foresthill, CA. Dusk, A few clouds , Dry   
Visibility: 5 miles
Cloud ht: 1,000 ft
Space WX Alerts: CONTINUED ALERT:  Electron 2MeV Integral Flux exceeded 1000pfu ( Latest Alert ) - Issue Time: 2018 Nov 14 1400 UTC

  Summary / Temperature 

Current Temperature
54.8°F
12.7°C
(24/hr Ago)
55.3°F
(Apparent temp)
50.4°F
Cool
Wind Chill Graphs
54.8°F 

54.8°F/ 12.7°C
 --- Virtual Temp: 55.8°F ---

 Temp Rate:

 24/hr Difference:

 Avg Running Temp:

 Todays High:

 Todays Low:

 Y-days High:

 Y-days Low:

 Todays WChill:

 Y-days WChill:

 Evapotranspiration:

-2.4°F/hr 

-0.5°F

58.1°F

62.4°F 12:50pm

45.9°F 3:25am

60.2°F 1:56pm

47.0°F 5:19am

39.7°F 4:47am

42.1°F 7:08am

0.068 in

115' Above Ground

 Temperature:

 6'AGL VRS 115'AGL:

 Avg Running Temp:

 Humidity:

 Todays High:

 Todays Low:

 Y-days High:

 Y-days Low:

59.0°F 

+4.2°F

60.6°F

25% 

64.0°F 12:26pm

50.0°F 3:20am

63.0°F 11:05am

51.0°F 12:58am

Temp & Humidity Graphs

  Wind 

Wind Speed

 Calm

Gusting to

 None

Calm

67°  

Calm

 Avg speed:

 Wind Run:

 Peak Gust:

Calm 

17.0 miles

  19.0 mph 5:32am

  Almanac  

Moon age: 6 days,20 hours,37 minutes,45%

Waxing Crescent
44%
Illuminated
6 days in cycle

 Moonrise:

 Moonset:

 Sunrise:

 Sunset:

 Solar Noon:

12:36pm

10:58pm

6:45am

4:50pm

11:48am

1min 59s less daylight tomorrow 

  Solar Radiation 

(Current Solar)
  5 W/m2
(Todays High)
 529 W/m2@12:03pm

Rain

 Rain Today:

 Rain Rate (/hr):

 Rain last hour:

 Rain Yesterday:

 This Month:

 Season Total:

38 Days Since Last Rain Day

0.00 in

0.000 in

0.00 in

0.00 in

0.00 in

0.92 in

Updated Time

Updated: 11/14/18  4:54pm

(Updated  sec ago)

Humidity & Barometer

 Humidity:

 Wetbulb:

 Dew Point:

 Barometer:

32% 

44.8°F 

25.5°F 

30.283 inHg 

 Baro Trend:  Steady 
Northern Calif
Preparedness
Fire 
Level 

    UV Index  

(Current UV)
0.0  None
(Todays High) @ 11:34am
2.0   Low

National Weather Service Forecast

This
Afternoon
This Afternoon: Mostly Sunny
Mostly Sunny
Tonight

Tonight: Mostly Clear
Mostly Clear
Thursday

Thursday: Mostly Sunny
Mostly Sunny
Thursday
Night
Thursday Night: Clear
Clear
Friday

Friday: Sunny
Sunny
Friday
Night
Friday Night: Mostly Clear
Mostly Clear
Hi 64 °F ↓ Lo 47 °F Hi 64 °F ↓ Lo 47 °F Hi 65 °F Lo 47 °F

Foresthill Probe 2 Stats  
Foresthill Probe 2: is located on Thomas Street
at 3000 feet. The main Foresthill Weather site
is located on Melody ln at the 2860 foot elevation

Calm
54.5°F
12.5°C
Temp Rate:
-2.3°F
Calm
Gusting to
None
(Humidity)
37%
Calm
338°  
Updated: 14/11/18 - 16:49:51
 Todays High: 62.0°F 12:57
 Todays Low: 43.6°F 03:23
 Rain Today: 0.00 in
 Season Total: 0.63 in

Foresthill Wx: Monthly,Yearly, Highs and Lows 

Foresthill  
This Weather Data is coming from the main Foresthill
Weather site located on Melody ln at the 2860 foot
elevation
Not Foresthill Probe 2
Weather Data
Month
  High
Month
  Low
Year
High
Year
Low
Temp 72.9°F
11/1/18
45.9°F
11/14/18
93.9°F
8/10/18
21.9°F
2/23/18
Humidity 61%
11/2/18
10%
11/8/18
100%
1/8/18
9%
10/15/18
Heat Index 72.7°F
11/1/18
45.2°F
11/11/18
93.3°F
7/25/18
27.1°F
2/20/18
Wind Chill 72.9°F
11/1/18
39.4°F
11/11/18
93.9°F
8/10/18
9.2°F
2/23/18
Wind Gust 34 mph
11/8/18
0 mph
11/1/18
43 mph
3/1/18
0 mph
1/1/18
Barometer 30.48 in
11/13/18
29.91 in
11/5/18
30.55 in
1/27/18
29.60 in
6/16/18
ET 0.14 in
11/8/18
0.00 in
11/1/18
0.25 in
6/24/18
0.00 in
1/1/18
Dew Point 47.2°F
11/1/18
0.7°F
11/8/18
66.9°F
7/24/18
0.7°F
11/8/18
Pacific Satellite US Radar Satellite Imagery Sacramento,CA.  (click to enlarge)
NWS Weather Forecast - Summary
Updated: Wednesday, November 14, 2018 - 1:45pm PST
Gusty East to Norheast winds possible Saturday night into Sunday Sierra and Foothills
Current Interstate Highway Conditions for I-80 & US-50

[I 80: IN THE SAN FRANCISCO BAY AREA - SOLANO CO]
no traffic restrictions are reported for this area.

[I 80: IN THE NORTHERN CALIFORNIA AREA & SIERRA NEVADA]
no traffic restrictions are reported for this area.

[US 50: IN THE SACRAMENTO VALLEY & THE LAKE TAHOE BASIN]
  1-way controlled traffic at various locations from 6 mi east of riverton /at south fork american river/ to 1 mi west of kyburz /at wildwood way/ (EL DORADO CO) from 7:00am to 5:00pm wednesday thru thursday thru 1/15/18 - due to construction
NWS Weather Forecast: This Afternoon and Tonight (Updated: Wed, 14-Nov-2018 1:41pm PST)
This
Afternoon
This Afternoon: Mostly Sunny
Mostly Sunny

Hi 64 °F ↓
NWS forecast: Mostly sunny. High near 64, with temperatures falling to around 55 in the afternoon. West northwest wind around 0 mph.
Tonight

Tonight: Mostly Clear
Mostly Clear

Lo 47 °F
NWS forecast: Mostly clear, with a low around 47. Northeast wind around 2 mph.
YR.NO 10 Day Weather forecast
Last update: 11/14/2018 @ 11:37
Next update: 11/15/2018 @ 00:00
Provided by: 22
      Temperature Precipitation Pressure Wind  
Today
11/14/2018
15:00 18:00 61°F   30.24 inHg Light breeze from west-southwest 4 mph
  18:00 00:00 48°F   30.23 inHg Light air from east-northeast 2 mph
    (Click to enlarge)
meteogram

    Forecast for next 9 days

      Temperature Precip Pressure Wind  
Thursday
11/15/2018
00:00 06:00 37°F   30.23 inHg Light breeze from east-northeast 6 mph
  06:00 12:00 36°F   30.17 inHg Light breeze from east-northeast 7 mph
  12:00 18:00 64°F   30.11 inHg Light breeze from southwest 4 mph
  18:00 00:00 52°F   30.06 inHg Light air from east-northeast 2 mph
      Temperature Precip Pressure Wind  
Friday
11/16/2018
00:00 06:00 37°F   30.05 inHg Light breeze from east-northeast 5 mph
  06:00 12:00 36°F   30.02 inHg Light breeze from east-northeast 5 mph
  12:00 18:00 66°F   29.99 inHg Light breeze from southwest 4 mph
  18:00 00:00 52°F   29.95 inHg Light air from east-northeast 2 mph
      Temperature Precip Pressure Wind  
Saturday
11/17/2018
00:00 06:00 36°F   29.98 inHg Light breeze from east-northeast 4 mph
  04:00 10:00 36°F   29.97 inHg Light breeze from east-northeast 5 mph
  10:00 16:00 63°F   30.01 inHg Light air from south-southwest 3 mph
  16:00 22:00 57°F   29.98 inHg Light air from southwest 3 mph
  22:00 04:00 39°F   30.04 inHg Light breeze from east-northeast 4 mph
      Temperature Precip Pressure Wind  
Sunday
11/18/2018
04:00 10:00 36°F   30.06 inHg Light breeze from east-northeast 6 mph
  10:00 16:00 63°F   30.08 inHg Light air from south 2 mph
  16:00 22:00 57°F   30.06 inHg Light air from south 2 mph
  22:00 04:00 43°F   30.09 inHg Light breeze from east-northeast 6 mph
      Temperature Precip Pressure Wind  
Monday
11/19/2018
04:00 10:00 39°F   30.07 inHg Light breeze from east-northeast 7 mph
  10:00 16:00 64°F   30.06 inHg Light air from south-southeast 2 mph
  16:00 22:00 59°F   30.01 inHg Light air from south-southwest 3 mph
  22:00 04:00 41°F   29.98 inHg Light breeze from east-northeast 6 mph
      Temperature Precip Pressure Wind  
Tuesday
11/20/2018
04:00 10:00 39°F   29.91 inHg Light breeze from east-northeast 5 mph
  10:00 16:00 63°F   29.90 inHg Light air from south-southwest 1 mph
  16:00 22:00 55°F   29.86 inHg Light air from southwest 3 mph
  22:00 04:00 45°F 0.11 in 29.93 inHg Light breeze from south-southeast 5 mph
      Temperature Precip Pressure Wind  
Wednesday
11/21/2018
04:00 10:00 41°F 0.12 in 29.96 inHg Light breeze from south-southeast 5 mph
  10:00 16:00 43°F 0.06 in 30.07 inHg Light breeze from south-southeast 6 mph
  16:00 22:00 45°F   30.10 inHg Light breeze from south-southeast 4 mph
  22:00 04:00 34°F   30.17 inHg Light breeze from east-northeast 4 mph
      Temperature Precip Pressure Wind  
Thursday
11/22/2018
04:00 10:00 28°F   30.17 inHg Light breeze from east-northeast 6 mph
  10:00 16:00 50°F   30.16 inHg Light air from east-southeast 2 mph
  16:00 22:00 50°F   30.08 inHg Light air from west-southwest 2 mph
  22:00 04:00 36°F   30.09 inHg Light breeze from east-northeast 4 mph
      Temperature Precip Pressure Wind  
Friday
11/23/2018
04:00 10:00 34°F   30.03 inHg Light breeze from east-northeast 5 mph
  10:00 16:00 54°F   29.98 inHg Light air from south 3 mph
  16:00 22:00 48°F 0.19 in 29.86 inHg Light air from south-southeast 3 mph
  22:00 04:00 41°F 0.24 in 29.84 inHg Light air from east-southeast 3 mph
How Close Are We To this Month's Temperature Record ?
Updated Wednesday, Nov 14, 2018- 4:45:00 PM

Current Temperature: 54.8°F

November's High: Temperature Record 72.9°F - Set on Thu, Nov 1, 2018 - 2:44:45 PM
We are currently 18.1°F Less than this Month's record High

November's Low: Temperature Record 28.9°F - Set on Thu, Nov 26, 2015 - 6:22:00 AM
We are currently 25.9°F More than this Month's record Low

Weather History For Wednesday, November 14, 2018


On this Day - In Weather History ...
Data courtesy of weatherforyou.com
powered by Cumulus v1.9.3 (1059)
Ambient Weather VWS v14.00
Top Contact Website Map Copyright © 2007 - 2018 Foresthillweather.com Never base important decisions on this or any weather information obtained from the Internet